Simultaneous Nadir Overpasses (SNOs) Predictions

Prediction of SNOs between GOES-17 and METOP-C Satellite Orbit:

Table of predicted SNOs for the next 14.0 days since TLE Epoch: 4/30/2022
Index Date Time (GOES-17) GOES-17 Lat,Lon METOP-C Lat,Lon Distance(km) Time Diff (sec)
1 05/01/2022 06:45:11 -0.05,-137.20 -0.28,-138.10 103.19 80
2 05/02/2022 06:21:51 -0.05,-137.20 0.86,-133.11 466.02 80
3 05/03/2022 18:40:42 0.04,-137.20 0.18,-137.66 53.83 80
4 05/06/2022 06:41:42 -0.03,-137.18 -0.08,-137.26 10.38 80
5 05/08/2022 18:39:52 0.03,-137.16 -0.06,-136.83 37.50 80
6 05/10/2022 06:56:12 -0.02,-137.14 -0.99,-141.42 488.21 80
7 05/11/2022 06:38:12 -0.02,-137.13 0.16,-136.44 79.82 80
8 05/12/2022 18:54:21 0.02,-137.11 0.89,-140.98 441.58 80
9 05/13/2022 18:36:21 0.02,-137.10 -0.21,-135.98 126.14 80
